FW8074 Weather Reports


Display with metric or nautical units.
time (UTC)temp
F
wind
direction
speed
MPH
gust
MPH
rain 1hr
in
rain 24hr
in
rain mn
in
humidity
%
barometer
mb
20260904131604 80 0 0.0 0.0 0.00 0.00 0.00 95 1014.4
20260904124617 77 0 0.0 0.0 0.00 0.00 0.00 100 1014.3
20260904123116 75 0 0.0 0.0 0.00 0.00 0.00 100 1014.2
20260904121604 74 0 0.0 0.0 0.00 0.00 0.00 99 1014.3
20260904114605 73 0 0.0 0.0 0.00 0.00 0.00 99 1014.1
20260904113105 72 0 0.0 0.0 0.00 0.00 0.00 99 1014.0
20260904111606 72 0 0.0 1.0 0.00 0.00 0.00 99 1013.9
20260904110106 73 0 0.0 0.0 0.00 0.00 0.00 98 1013.8
20260904104603 73 0 0.0 0.0 0.00 0.00 0.00 98 1013.6
20260904103104 73 0 0.0 0.0 0.00 0.00 0.00 99 1013.5
20260904101604 73 0 0.0 0.0 0.00 0.00 0.00 98 1013.3
20260904100108 73 0 0.0 0.0 0.00 0.00 0.00 98 1013.4
20260904094611 73 0 0.0 0.0 0.00 0.00 0.00 98 1013.3
20260904093106 73 0 0.0 0.0 0.00 0.00 0.00 98 1013.1
20260904091604 73 0 0.0 0.0 0.00 0.00 0.00 98 1013.1
20260904090108 74 0 0.0 0.0 0.00 0.00 0.00 98 1013.0
20260904084606 74 0 0.0 0.0 0.00 0.00 0.00 98 1013.0
20260904083149 74 0 0.0 0.0 0.00 0.00 0.00 98 1012.9
20260904081610 74 0 0.0 0.0 0.00 0.00 0.00 97 1013.0
20260904080104 74 0 0.0 0.0 0.00 0.00 0.00 97 1013.0
20260904074602 74 0 0.0 0.0 0.00 0.00 0.00 97 1013.0
20260904073101 75 0 0.0 0.0 0.00 0.00 0.00 97 1012.9
20260904071623 75 0 0.0 0.0 0.00 0.00 0.00 97 1013.0
20260904070118 75 0 0.0 0.0 0.00 0.00 0.00 96 1013.1
20260904064606 75 0 0.0 0.0 0.00 0.00 0.00 96 1013.2
20260904063108 75 0 0.0 0.0 0.00 0.00 0.00 96 1013.3
20260904061611 76 0 0.0 0.0 0.00 0.00 0.00 95 1013.5
20260904060107 76 0 0.0 0.0 0.00 0.00 0.00 95 1013.7
20260904054608 76 0 0.0 0.0 0.00 0.00 0.00 94 1013.8
20260904053108 76 0 0.0 0.0 0.00 0.00 0.00 94 1014.0
20260904051607 76 0 0.0 0.0 0.00 0.00 0.00 93 1013.9
20260904050109 76 0 0.0 0.0 0.00 0.00 0.00 92 1014.1
20260904044600 77 0 0.0 0.0 0.00 0.00 0.00 92 1014.1
20260904043111 77 0 0.0 0.0 0.00 0.00 0.00 91 1014.2
20260904041608 77 0 0.0 0.0 0.00 0.00 0.00 90 1014.2
20260904040111 77 0 0.0 0.0 0.00 0.00 0.00 89 1014.3
20260904034609 78 0 0.0 0.0 0.00 0.00 0.00 88 1014.3
20260904033104 78 0 0.0 0.0 0.00 0.00 0.00 87 1014.3
20260904031609 78 0 0.0 0.0 0.00 0.00 0.00 86 1014.3
20260904030104 79 0 0.0 0.0 0.00 0.00 0.00 85 1014.4
20260904024604 79 0 0.0 0.0 0.00 0.00 0.00 84 1014.4
20260904023109 80 0 0.0 0.0 0.00 0.00 0.00 83 1014.3
20260904021605 80 0 0.0 0.0 0.00 0.00 0.00 82 1014.4
20260904020104 81 0 0.0 0.0 0.00 0.00 0.00 81 1014.4
20260904014609 81 0 0.0 0.0 0.00 0.00 0.00 80 1014.2
20260904013104 82 0 0.0 0.0 0.00 0.00 0.00 79 1013.8
20260904011605 82 0 0.0 0.0 0.00 0.00 0.00 79 1013.6
20260904004605 84 0 0.0 0.0 0.00 0.00 0.00 78 1013.4
20260904003105 84 0 0.0 0.0 0.00 0.00 0.00 77 1012.9
20260904001608 85 0 0.0 0.0 0.00 0.00 0.00 75 1012.8
20260904000110 86 0 0.0 0.0 0.00 0.00 0.00 75 1012.7
20260903234607 87 0 0.0 0.0 0.00 0.00 0.00 75 1012.5
20260903233106 87 0 0.0 0.0 0.00 0.00 0.00 74 1012.3
20260903231605 89 0 0.0 0.0 0.00 0.00 0.00 73 1012.2
20260903230108 90 0 0.0 0.0 0.00 0.00 0.00 71 1012.3
20260903224603 90 0 0.0 0.0 0.00 0.00 0.00 69 1012.2
20260903223101 91 0 0.0 0.0 0.00 0.00 0.00 68 1012.2
20260903221604 91 0 0.0 0.0 0.00 0.00 0.00 67 1012.4
20260903220107 91 0 0.0 0.0 0.00 0.00 0.00 71 1012.3
20260903214614 92 0 0.0 0.0 0.00 0.00 0.00 69 1012.4
20260903213059 91 0 0.0 0.0 0.00 0.00 0.00 66 1012.2
20260903211612 93 0 0.0 0.0 0.00 0.00 0.00 67 1012.3
20260903204603 94 0 0.0 0.0 0.00 0.00 0.00 61 1012.4
20260903203108 95 0 0.0 0.0 0.00 0.00 0.00 61 1012.5
20260903201609 96 0 0.0 0.0 0.00 0.00 0.00 58 1012.7
20260903200104 95 0 0.0 0.0 0.00 0.00 0.00 58 1012.7
20260903194602 95 0 0.0 0.0 0.00 0.00 0.00 58 1012.9
20260903193110 95 0 0.0 0.0 0.00 0.00 0.00 58 1013.0
20260903191603 95 0 0.0 0.0 0.00 0.00 0.00 58 1013.2
20260903190106 95 0 0.0 0.0 0.00 0.00 0.00 61 1013.5
20260903184606 95 0 0.0 0.0 0.00 0.00 0.00 61 1013.7
20260903183106 94 0 0.0 0.0 0.00 0.00 0.00 63 1013.8
20260903181605 94 0 0.0 0.0 0.00 0.00 0.00 64 1013.9
20260903180104 95 0 0.0 0.0 0.00 0.00 0.00 62 1013.9
20260903174608 94 0 0.0 0.0 0.00 0.00 0.00 64 1014.0
20260903173106 94 0 0.0 0.0 0.00 0.00 0.00 63 1014.1
20260903171603 93 0 0.0 0.0 0.00 0.00 0.00 65 1014.1
20260903170107 93 0 0.0 0.0 0.00 0.00 0.00 64 1014.3
20260903164606 92 0 0.0 0.0 0.00 0.00 0.00 65 1014.6
20260903163106 92 0 0.0 0.0 0.00 0.00 0.00 66 1014.7
20260903161606 92 0 0.0 0.0 0.00 0.00 0.00 66 1014.8
20260903154606 91 0 0.0 0.0 0.00 0.00 0.00 70 1015.0
20260903153130 91 0 0.0 0.0 0.00 0.00 0.00 68 1014.9
20260903151617 90 0 0.0 0.0 0.00 0.00 0.00 70 1015.0
20260903150121 90 0 0.0 0.0 0.00 0.00 0.00 69 1015.0
20260903144611 89 0 0.0 0.0 0.00 0.00 0.00 69 1015.0
20260903143109 89 0 0.0 0.0 0.00 0.00 0.00 70 1015.0
20260903141604 89 0 0.0 0.0 0.00 0.00 0.00 72 1014.7
20260903140106 88 0 0.0 0.0 0.00 0.00 0.00 74 1014.8
20260903134605 86 0 0.0 0.0 0.00 0.00 0.00 78 1014.8
20260903133106 84 0 0.0 0.0 0.00 0.00 0.00 85 1015.0